This is the latest recevied weather packets stored in our database for station/object WA1NHP. If no packets are shown the sender has not sent any weather packets the latest 1 day(s).
| Time | Temp. | Humidity | Pressure | Rain* | Wind** | Luminosity | Snow |
|---|---|---|---|---|---|---|---|
| 1778063044 | 12.78° C | 90% | 1023.9 hPa | 0 mm | 2.24 m/s, 169° | 49 W/m² | - |
| 1778062444 | 12.78° C | 89% | 1023.9 hPa | 0 mm | 1.34 m/s, 160° | 25 W/m² | - |
| 1778061844 | 12.78° C | 89% | 1023.9 hPa | 0 mm | 1.34 m/s, 144° | 16 W/m² | - |
| 1778061244 | 12.78° C | 89% | 1023.9 hPa | 0 mm | 1.79 m/s, 203° | 5 W/m² | - |
| 1778060644 | 12.78° C | 89% | 1023.9 hPa | 0 mm | 2.68 m/s, 191° | 0 W/m² | - |
| 1778060044 | 12.78° C | 89% | 1023.9 hPa | 0 mm | 2.68 m/s, 189° | 0 W/m² | - |
| 1778059443 | 12.78° C | 89% | 1023.9 hPa | 0 mm | 1.34 m/s, 189° | 0 W/m² | - |
| 1778058844 | 12.78° C | 88% | 1023.9 hPa | 0 mm | 2.24 m/s, 159° | 0 W/m² | - |
| 1778058245 | 13.33° C | 88% | 1023.9 hPa | 0 mm | 1.34 m/s, 178° | 0 W/m² | - |
| 1778057644 | 12.78° C | 88% | 1023.9 hPa | 0 mm | 2.68 m/s, 171° | 0 W/m² | - |
| 1778057044 | 12.78° C | 88% | 1023.9 hPa | 0 mm | 2.68 m/s, 170° | 0 W/m² | - |
| 1778056444 | 12.78° C | 87% | 1023.9 hPa | 0 mm | 1.79 m/s, 187° | 0 W/m² | - |
| 1778055843 | 12.78° C | 87% | 1023.9 hPa | 0 mm | 2.24 m/s, 192° | 0 W/m² | - |
| 1778055243 | 12.78° C | 87% | 1023.9 hPa | 0 mm | 0.89 m/s, 168° | 0 W/m² | - |
| 1778054644 | 12.78° C | 86% | 1023.9 hPa | 0 mm | 0.45 m/s, 161° | 0 W/m² | - |
| 1778054044 | 13.33° C | 85% | 1023.9 hPa | 0 mm | 0.89 m/s, 183° | 0 W/m² | - |
| 1778053444 | 13.33° C | 84% | 1023.9 hPa | 0 mm | 0.89 m/s, 193° | 0 W/m² | - |
| 1778052844 | 13.33° C | 83% | 1023.9 hPa | 0 mm | 0.89 m/s, 198° | 0 W/m² | - |
| 1778052244 | 13.33° C | 83% | 1023.9 hPa | 0 mm | 1.34 m/s, 169° | 0 W/m² | - |
| 1778051643 | 13.89° C | 82% | 1023.9 hPa | 0 mm | 1.34 m/s, 225° | 0 W/m² | - |
| 1778051044 | 13.89° C | 81% | 1023.9 hPa | 0 mm | 0.89 m/s, 191° | 0 W/m² | - |
| 1778050443 | 13.89° C | 80% | 1023.9 hPa | 0 mm | 1.34 m/s, 196° | 0 W/m² | - |
| 1778049844 | 14.44° C | 80% | 1023.9 hPa | 0 mm | 1.79 m/s, 165° | 0 W/m² | - |
| 1778049243 | 14.44° C | 80% | 1023.9 hPa | 0 mm | 0.89 m/s, 215° | 0 W/m² | - |
| 1778048644 | 14.44° C | 79% | 1023.9 hPa | 0 mm | 1.34 m/s, 219° | 0 W/m² | - |
* Rain latest hour (hover to see other rain measurements)
** Current wind speed in m/s (hover to see current wind gust speed)